Check out our new BloomSky Weather System.

Active alerts

Houston, TX
  Details for Houston, TX River Flood Warning  +1 additional alert
Fort Bend, TX
  Details for Fort Bend, TX River Flood Warning  +1 additional alert


Thunder radar  blitzortung!


Rain radar more information rain snow radar


Visit our other weather sites:

Template documentation
and downloads

And another site



Weather Underground History page Text

Daily Summary for Nil La, TWC- Units:  Metric    English   Both
« Previous Day
Next Day »
Daily Weekly Monthly Yearly Custom
  High: Low: Average:
Temperature: -17.8 °C 5.8 °C 7.1 °C
Dew Point: -17.8 °C 4.4 °C 5.3 °C
Humidity: Humidity % 85 % 88 %
Wind Speed: 0 km/h 0 km/h 2.6 km/h
Wind Gust: 0 km/h - -
Wind:- - WNW
Pressure: 0 hPa 1022.2 hPa -
Precipitation: 0 mm    
Historical Graphs
 
 
Tabular Data for Nil La, TWC-
Time Temperature Dew Point Pressure Wind Wind Speed Wind Gust Humidity Rainfall Rate (Hourly)
-17.8 °C -17.8 °C 0 hPa Calm     Humidity % 0 mm
00:04 6.8 °C 5.4 °C 1022.6 hPa NW 1.6 km/h 16.1 km/h 91 % 0 mm
00:09 6.8 °C 5.4 °C 1022.6 hPa WNW 3.2 km/h 16.1 km/h 91 % 0 mm
00:14 6.8 °C 5.4 °C 1022.6 hPa NW 8 km/h 16.1 km/h 91 % 0 mm
00:19 6.7 °C 5.3 °C 1022.6 hPa WNW 1.6 km/h 14.5 km/h 91 % 0 mm
00:24 6.7 °C 5.3 °C 1022.6 hPa NW 1.6 km/h 14.5 km/h 91 % 0 mm
00:29 6.7 °C 5.3 °C 1022.2 hPa NNW 1.6 km/h 16.1 km/h 91 % 0 mm
00:34 6.7 °C 5.3 °C 1022.2 hPa NW 12.9 km/h 16.1 km/h 91 % 0 mm
00:39 6.6 °C 5.2 °C 1022.2 hPa West 1.6 km/h 16.1 km/h 91 % 0 mm
00:44 6.6 °C 5.1 °C 1022.2 hPa North 1.6 km/h 16.1 km/h 90 % 0 mm
00:49 6.6 °C 5.1 °C 1022.2 hPa NNW 9.7 km/h 20.9 km/h 90 % 0 mm
00:54 6.6 °C 5.1 °C 1022.2 hPa WNW 8 km/h 20.9 km/h 90 % 0 mm
00:59 6.6 °C 4.9 °C 1022.6 hPa NNW 4.8 km/h 20.9 km/h 89 % 0 mm
01:04 6.6 °C 4.9 °C 1022.6 hPa NW 4.8 km/h 16.1 km/h 89 % 0 mm
01:09 6.6 °C 5.1 °C 1022.6 hPa WNW 9.7 km/h 14.5 km/h 90 % 0 mm
01:14 6.7 °C 5 °C 1022.6 hPa NNW 3.2 km/h 12.9 km/h 89 % 0 mm
01:19 6.7 °C 5.2 °C 1022.6 hPa NW 1.6 km/h 14.5 km/h 90 % 0 mm
01:24 6.7 °C 5.2 °C 1022.6 hPa NW 6.4 km/h 14.5 km/h 90 % 0 mm
01:29 6.6 °C 4.9 °C 1022.9 hPa WNW 11.3 km/h 14.5 km/h 89 % 0 mm
01:34 6.6 °C 4.9 °C 1022.6 hPa WNW 9.7 km/h 16.1 km/h 89 % 0 mm
01:39 6.6 °C 4.9 °C 1022.6 hPa North 3.2 km/h 17.7 km/h 89 % 0 mm
01:44 6.6 °C 4.9 °C 1022.6 hPa NNW 8 km/h 17.7 km/h 89 % 0 mm
01:49 6.6 °C 4.8 °C 1022.6 hPa NNW 1.6 km/h 17.7 km/h 88 % 0 mm
01:54 6.5 °C 4.7 °C 1022.9 hPa West 3.2 km/h 16.1 km/h 88 % 0 mm
01:59 6.5 °C 4.8 °C 1022.9 hPa NW 9.7 km/h 16.1 km/h 89 % 0 mm
02:04 6.4 °C 4.7 °C 1022.6 hPa NW 8 km/h 16.1 km/h 89 % 0 mm
02:09 6.4 °C 4.7 °C 1022.9 hPa NNW 3.2 km/h 16.1 km/h 89 % 0 mm
02:14 6.4 °C 4.7 °C 1022.9 hPa WSW 4.8 km/h 16.1 km/h 89 % 0 mm
02:19 6.4 °C 4.7 °C 1022.9 hPa WNW 9.7 km/h 16.1 km/h 89 % 0 mm
02:24 6.4 °C 4.9 °C 1022.9 hPa NNW 9.7 km/h 17.7 km/h 90 % 0 mm
02:29 6.3 °C 4.8 °C 1022.6 hPa NW 9.7 km/h 17.7 km/h 90 % 0 mm
02:34 6.2 °C 4.8 °C 1022.6 hPa NW 8 km/h 22.5 km/h 91 % 0 mm
02:39 6.2 °C 4.8 °C 1022.6 hPa NW 9.7 km/h 22.5 km/h 91 % 0 mm
02:44 6.1 °C 4.7 °C 1022.6 hPa NNW 8 km/h 22.5 km/h 91 % 0 mm
02:49 6.1 °C 4.7 °C 1022.9 hPa NW 3.2 km/h 16.1 km/h 91 % 0 mm
02:54 6.1 °C 4.9 °C 1022.9 hPa WNW 6.4 km/h 17.7 km/h 92 % 0 mm
02:59 6.1 °C 4.9 °C 1022.9 hPa WNW 3.2 km/h 17.7 km/h 92 % 0 mm
03:04 6.1 °C 4.9 °C 1022.9 hPa WNW 4.8 km/h 17.7 km/h 92 % 0 mm
03:09 6.1 °C 4.7 °C 1022.9 hPa NW 3.2 km/h 12.9 km/h 91 % 0 mm
03:14 6 °C 4.6 °C 1022.9 hPa NW 3.2 km/h 12.9 km/h 91 % 0 mm
03:19 6 °C 4.6 °C 1022.9 hPa NNW 9.7 km/h 12.9 km/h 91 % 0 mm
03:24 6 °C 4.6 °C 1022.9 hPa NW 6.4 km/h 16.1 km/h 91 % 0 mm
03:29 6 °C 4.6 °C 1023.2 hPa North 24.1 km/h 16.1 km/h 91 % 0 mm
03:34 6 °C 4.6 °C 1023.2 hPa Calm   24.1 km/h 91 % 0 mm
03:39 6 °C 4.6 °C 1023.2 hPa WNW 6.4 km/h 24.1 km/h 91 % 0 mm
03:44 6 °C 4.8 °C 1023.2 hPa NW 11.3 km/h 24.1 km/h 92 % 0 mm
03:49 6 °C 4.8 °C 1022.9 hPa WNW 3.2 km/h 20.9 km/h 92 % 0 mm
03:54 5.9 °C 4.7 °C 1023.2 hPa West 3.2 km/h 20.9 km/h 92 % 0 mm
03:59 5.9 °C 4.7 °C 1023.2 hPa WNW 4.8 km/h 14.5 km/h 92 % 0 mm
04:04 5.9 °C 4.7 °C 1022.9 hPa WNW 9.7 km/h 14.5 km/h 92 % 0 mm
04:09 5.9 °C 4.7 °C 1023.2 hPa NNW 9.7 km/h 19.3 km/h 92 % 0 mm
04:14 5.9 °C 4.5 °C 1023.2 hPa WNW 4.8 km/h 19.3 km/h 91 % 0 mm
04:19 5.9 °C 4.5 °C 1023.2 hPa West 6.4 km/h 19.3 km/h 91 % 0 mm
04:24 5.9 °C 4.7 °C 1023.2 hPa WNW 1.6 km/h 19.3 km/h 92 % 0 mm
04:29 5.9 °C 4.7 °C 1023.2 hPa NW 9.7 km/h 17.7 km/h 92 % 0 mm
04:34 5.8 °C 4.6 °C 1023.2 hPa NNE 1.6 km/h 17.7 km/h 92 % 0 mm
04:39 5.8 °C 4.6 °C 1023.2 hPa WNW 8 km/h 16.1 km/h 92 % 0 mm
04:44 5.8 °C 4.6 °C 1023.2 hPa NW 6.4 km/h 16.1 km/h 92 % 0 mm
04:49 5.8 °C 4.6 °C 1023.2 hPa NW 4.8 km/h 19.3 km/h 92 % 0 mm
04:54 5.8 °C 4.6 °C 1023.2 hPa WNW 6.4 km/h 19.3 km/h 92 % 0 mm
04:59 5.8 °C 4.6 °C 1023.2 hPa NW 4.8 km/h 19.3 km/h 92 % 0 mm
05:04 5.8 °C 4.4 °C 1023.2 hPa WNW 4.8 km/h 17.7 km/h 91 % 0 mm
05:09 5.9 °C 4.5 °C 1023.2 hPa WNW 4.8 km/h 17.7 km/h 91 % 0 mm
05:14 5.9 °C 4.5 °C 1023.2 hPa WNW 6.4 km/h 17.7 km/h 91 % 0 mm
05:19 5.9 °C 4.5 °C 1023.2 hPa West 6.4 km/h 17.7 km/h 91 % 0 mm
05:24 5.9 °C 4.5 °C 1023.2 hPa NNW 4.8 km/h 16.1 km/h 91 % 0 mm
05:29 5.9 °C 4.5 °C 1023.2 hPa NNW 8 km/h 17.7 km/h 91 % 0 mm
05:34 5.9 °C 4.5 °C 1023.2 hPa WNW 6.4 km/h 17.7 km/h 91 % 0 mm
05:39 6 °C 4.6 °C 1023.2 hPa NNW 3.2 km/h 17.7 km/h 91 % 0 mm
05:44 6 °C 4.6 °C 1023.6 hPa NW 3.2 km/h 14.5 km/h 91 % 0 mm
05:49 6 °C 4.6 °C 1023.6 hPa NNW 4.8 km/h 14.5 km/h 91 % 0 mm
05:54 6 °C 4.5 °C 1023.6 hPa NW 9.7 km/h 14.5 km/h 90 % 0 mm
05:59 6 °C 4.5 °C 1023.6 hPa NW 6.4 km/h 24.1 km/h 90 % 0 mm
06:04 6 °C 4.5 °C 1023.6 hPa WNW 6.4 km/h 24.1 km/h 90 % 0 mm
06:09 6.1 °C 4.7 °C 1023.6 hPa WNW 3.2 km/h 24.1 km/h 91 % 0 mm
06:14 6.1 °C 4.7 °C 1023.9 hPa NW 4.8 km/h 17.7 km/h 91 % 0 mm
06:19 6.1 °C 4.7 °C 1023.9 hPa NW 8 km/h 14.5 km/h 91 % 0 mm
06:24 6.1 °C 4.7 °C 1023.9 hPa NNW 4.8 km/h 12.9 km/h 91 % 0 mm
06:29 6.1 °C 4.7 °C 1023.9 hPa NW 3.2 km/h 12.9 km/h 91 % 0 mm
06:34 6.1 °C 4.7 °C 1023.9 hPa NW 3.2 km/h 12.9 km/h 91 % 0 mm
06:39 6.1 °C 4.7 °C 1023.9 hPa Calm   12.9 km/h 91 % 0 mm
06:44 6.1 °C 4.7 °C 1023.9 hPa WNW 6.4 km/h 12.9 km/h 91 % 0 mm
06:49 6.1 °C 4.7 °C 1024.3 hPa WNW 9.7 km/h 11.3 km/h 91 % 0 mm
06:54 6.1 °C 4.7 °C 1024.3 hPa North 1.6 km/h 19.3 km/h 91 % 0 mm
06:59 6.1 °C 4.7 °C 1024.3 hPa WNW 12.9 km/h 19.3 km/h 91 % 0 mm
07:04 6.1 °C 4.7 °C 1024.3 hPa NW 14.5 km/h 19.3 km/h 91 % 0 mm
07:09 6.1 °C 4.7 °C 1024.3 hPa NW 1.6 km/h 19.3 km/h 91 % 0 mm
07:14 6.1 °C 4.9 °C 1024.3 hPa NW 3.2 km/h 19.3 km/h 92 % 0 mm
07:19 6.1 °C 4.7 °C 1024.3 hPa NW 3.2 km/h 19.3 km/h 91 % 0 mm
07:24 6.1 °C 4.7 °C 1024.3 hPa NW 11.3 km/h 17.7 km/h 91 % 0 mm
07:29 6.1 °C 4.6 °C 1024.6 hPa WNW 4.8 km/h 19.3 km/h 90 % 0 mm
07:35 6 °C 4.5 °C 1024.6 hPa WNW 8 km/h 19.3 km/h 90 % 0 mm
07:39 6.1 °C 4.6 °C 1024.6 hPa NW 9.7 km/h 19.3 km/h 90 % 0 mm
07:44 6 °C 4.5 °C 1024.6 hPa West 4.8 km/h 19.3 km/h 90 % 0 mm
07:49 6.1 °C 4.6 °C 1024.6 hPa NW 4.8 km/h 19.3 km/h 90 % 0 mm
07:54 6.1 °C 4.6 °C 1024.9 hPa NW 6.4 km/h 19.3 km/h 90 % 0 mm
07:59 6.1 °C 4.6 °C 1024.9 hPa NW 3.2 km/h 19.3 km/h 90 % 0 mm
08:04 6.1 °C 4.6 °C 1024.9 hPa NW 4.8 km/h 16.1 km/h 90 % 0 mm
08:09 6.1 °C 4.6 °C 1024.9 hPa WNW 12.9 km/h 17.7 km/h 90 % 0 mm
08:14 6.2 °C 4.7 °C 1024.9 hPa NW 8 km/h 17.7 km/h 90 % 0 mm
08:19 6.2 °C 4.7 °C 1025.3 hPa NNW 9.7 km/h 17.7 km/h 90 % 0 mm
08:24 6.2 °C 4.7 °C 1024.9 hPa NW 3.2 km/h 17.7 km/h 90 % 0 mm
08:29 6.2 °C 4.5 °C 1025.3 hPa NW 3.2 km/h 16.1 km/h 89 % 0 mm
08:34 6.2 °C 4.7 °C 1025.3 hPa NW 4.8 km/h 19.3 km/h 90 % 0 mm
08:39 6.3 °C 4.8 °C 1025.3 hPa WNW 3.2 km/h 19.3 km/h 90 % 0 mm
08:44 6.4 °C 4.7 °C 1025.3 hPa NW 8 km/h 19.3 km/h 89 % 0 mm
08:49 6.4 °C 4.7 °C 1025.3 hPa NNW 9.7 km/h 17.7 km/h 89 % 0 mm
08:54 6.4 °C 4.7 °C 1025.3 hPa West 8 km/h 17.7 km/h 89 % 0 mm
08:59 6.5 °C 4.8 °C 1025.3 hPa Calm   17.7 km/h 89 % 0 mm
09:04 6.6 °C 4.9 °C 1025.6 hPa NW 4.8 km/h 16.1 km/h 89 % 0 mm
09:09 6.6 °C 4.9 °C 1025.6 hPa NW 3.2 km/h 14.5 km/h 89 % 0 mm
09:14 6.6 °C 4.9 °C 1025.6 hPa Calm   12.9 km/h 89 % 0 mm
09:19 6.6 °C 4.9 °C 1026 hPa Calm   16.1 km/h 89 % 0 mm
09:24 6.7 °C 5 °C 1026 hPa Calm   16.1 km/h 89 % 0 mm
09:29 6.7 °C 5 °C 1026 hPa NW 1.6 km/h 16.1 km/h 89 % 0 mm
09:34 6.7 °C 5 °C 1026 hPa Calm   11.3 km/h 89 % 0 mm
09:39 6.8 °C 5.1 °C 1026 hPa Calm   4.8 km/h 89 % 0 mm
09:44 6.8 °C 5.1 °C 1026 hPa Calm   4.8 km/h 89 % 0 mm
09:49 6.7 °C 5.2 °C 1026 hPa Calm   4.8 km/h 90 % 0 mm
09:54 6.7 °C 5.2 °C 1026 hPa Calm   3.2 km/h 90 % 0 mm
09:59 6.7 °C 5.2 °C 1026 hPa Calm   3.2 km/h 90 % 0 mm
10:04 6.7 °C 5.2 °C 1026 hPa Calm   3.2 km/h 90 % 0 mm
10:09 6.8 °C 5.3 °C 1026 hPa WNW 1.6 km/h 3.2 km/h 90 % 0 mm
10:14 6.8 °C 5.3 °C 1026 hPa Calm   1.6 km/h 90 % 0 mm
10:19 6.8 °C 5.3 °C 1026 hPa Calm   1.6 km/h 90 % 0 mm
10:24 6.8 °C 5.3 °C 1026 hPa Calm   3.2 km/h 90 % 0 mm
10:29 6.9 °C 5.4 °C 1026.3 hPa Calm   3.2 km/h 90 % 0 mm
10:34 6.9 °C 5.2 °C 1026.3 hPa Calm   3.2 km/h 89 % 0 mm
10:39 6.8 °C 5.3 °C 1026.3 hPa Calm   12.9 km/h 90 % 0 mm
10:44 6.9 °C 5.4 °C 1026 hPa Calm   12.9 km/h 90 % 0 mm
10:49 7.1 °C 5.4 °C 1026 hPa Calm   12.9 km/h 89 % 0 mm
10:54 7.1 °C 5.6 °C 1026.3 hPa Calm   12.9 km/h 90 % 0 mm
10:59 7.1 °C 5.2 °C 1026.3 hPa Calm   9.7 km/h 88 % 0 mm
11:04 7.1 °C 5.4 °C 1026 hPa Calm   11.3 km/h 89 % 0 mm
11:09 7.2 °C 5.5 °C 1026 hPa Calm   11.3 km/h 89 % 0 mm
11:14 7.3 °C 5.4 °C 1026 hPa Calm   11.3 km/h 88 % 0 mm
11:19 7.2 °C 5.3 °C 1026 hPa Calm   4.8 km/h 88 % 0 mm
11:24 7.3 °C 5.4 °C 1026 hPa Calm   9.7 km/h 88 % 0 mm
11:29 7.4 °C 5.5 °C 1026 hPa Calm   9.7 km/h 88 % 0 mm
11:34 7.5 °C 5.6 °C 1026 hPa Calm   9.7 km/h 88 % 0 mm
11:39 7.6 °C 5.7 °C 1026 hPa Calm   1.6 km/h 88 % 0 mm
11:44 7.6 °C 5.7 °C 1025.6 hPa Calm   1.6 km/h 88 % 0 mm
11:49 7.7 °C 5.7 °C 1026 hPa Calm   1.6 km/h 87 % 0 mm
11:54 7.7 °C 5.7 °C 1025.6 hPa Calm   1.6 km/h 87 % 0 mm
11:59 7.6 °C 5.6 °C 1025.6 hPa Calm   1.6 km/h 87 % 0 mm
12:04 7.6 °C 5.6 °C 1025.6 hPa Calm   4.8 km/h 87 % 0 mm
12:09 7.4 °C 5.4 °C 1025.6 hPa Calm   4.8 km/h 87 % 0 mm
12:14 7.5 °C 5.6 °C 1025.6 hPa Calm   6.4 km/h 88 % 0 mm
12:19 7.6 °C 5.6 °C 1025.3 hPa Calm   6.4 km/h 87 % 0 mm
12:24 7.7 °C 5.7 °C 1025.3 hPa Calm   6.4 km/h 87 % 0 mm
12:29 7.8 °C 5.9 °C 1025.3 hPa Calm     88 % 0 mm
12:34 7.8 °C 5.8 °C 1025.3 hPa Calm   1.6 km/h 87 % 0 mm
12:39 7.8 °C 5.8 °C 1024.9 hPa Calm   1.6 km/h 87 % 0 mm
12:44 7.9 °C 5.7 °C 1024.9 hPa Calm   1.6 km/h 86 % 0 mm
12:49 7.8 °C 5.6 °C 1024.9 hPa Calm   1.6 km/h 86 % 0 mm
12:54 7.9 °C 5.7 °C 1024.9 hPa Calm   6.4 km/h 86 % 0 mm
12:59 7.9 °C 5.5 °C 1024.9 hPa Calm   6.4 km/h 85 % 0 mm
13:04 8.1 °C 5.9 °C 1024.9 hPa Calm   6.4 km/h 86 % 0 mm
13:09 8.1 °C 5.7 °C 1024.9 hPa Calm   1.6 km/h 85 % 0 mm
13:14 8.1 °C 5.7 °C 1024.9 hPa Calm   1.6 km/h 85 % 0 mm
13:19 8.1 °C 5.7 °C 1024.9 hPa Calm   1.6 km/h 85 % 0 mm
13:24 8 °C 5.6 °C 1024.9 hPa Calm   1.6 km/h 85 % 0 mm
13:29 8.2 °C 6 °C 1024.9 hPa Calm   1.6 km/h 86 % 0 mm
13:34 8.2 °C 5.8 °C 1024.6 hPa Calm   1.6 km/h 85 % 0 mm
13:39 8.2 °C 5.8 °C 1024.9 hPa Calm   1.6 km/h 85 % 0 mm
13:44 8.2 °C 6 °C 1024.9 hPa Calm     86 % 0 mm
13:49 8 °C 5.6 °C 1024.9 hPa WNW 3.2 km/h   85 % 0 mm
13:54 7.8 °C 5.4 °C 1024.9 hPa Calm   11.3 km/h 85 % 0 mm
13:59 7.9 °C 5.7 °C 1024.9 hPa Calm   11.3 km/h 86 % 0 mm
14:04 7.7 °C 5.3 °C 1024.9 hPa Calm   11.3 km/h 85 % 0 mm
14:09 7.7 °C 5.3 °C 1024.9 hPa Calm   11.3 km/h 85 % 0 mm
14:14 7.8 °C 5.6 °C 1024.9 hPa Calm   11.3 km/h 86 % 0 mm
14:19 7.7 °C 5.5 °C 1024.9 hPa Calm   11.3 km/h 86 % 0 mm
14:24 7.8 °C 5.8 °C 1024.9 hPa Calm   8 km/h 87 % 0 mm
14:29 7.8 °C 5.6 °C 1024.9 hPa Calm   8 km/h 86 % 0 mm
14:34 7.9 °C 5.5 °C 1024.9 hPa Calm   8 km/h 85 % 0 mm
14:39 7.9 °C 5.5 °C 1024.9 hPa Calm   1.6 km/h 85 % 0 mm
14:44 7.9 °C 5.5 °C 1024.9 hPa Calm   1.6 km/h 85 % 0 mm
14:49 8 °C 5.8 °C 1024.9 hPa Calm   1.6 km/h 86 % 0 mm
14:54 8 °C 5.8 °C 1024.9 hPa Calm   1.6 km/h 86 % 0 mm
14:59 8.1 °C 5.9 °C 1024.9 hPa Calm   1.6 km/h 86 % 0 mm
15:04 8.1 °C 5.9 °C 1024.9 hPa Calm   1.6 km/h 86 % 0 mm
15:09 8.1 °C 5.9 °C 1024.9 hPa Calm     86 % 0 mm
15:14 8.1 °C 5.9 °C 1024.9 hPa Calm     86 % 0 mm
15:19 8.1 °C 5.9 °C 1024.9 hPa Calm     86 % 0 mm
15:24 8 °C 5.8 °C 1024.9 hPa Calm   1.6 km/h 86 % 0 mm
15:29 7.9 °C 5.7 °C 1024.9 hPa Calm   4.8 km/h 86 % 0 mm
15:34 7.9 °C 5.9 °C 1024.9 hPa Calm   4.8 km/h 87 % 0 mm
15:39 7.9 °C 5.7 °C 1024.9 hPa Calm   4.8 km/h 86 % 0 mm
15:44 7.8 °C 5.8 °C 1024.9 hPa Calm   3.2 km/h 87 % 0 mm
15:49 7.8 °C 5.8 °C 1024.9 hPa Calm   4.8 km/h 87 % 0 mm
15:54 7.8 °C 5.8 °C 1024.9 hPa Calm   4.8 km/h 87 % 0 mm
15:59 7.9 °C 6 °C 1024.9 hPa Calm   4.8 km/h 88 % 0 mm
16:04 7.9 °C 5.9 °C 1024.9 hPa Calm     87 % 0 mm
16:09 7.9 °C 5.9 °C 1024.9 hPa Calm     87 % 0 mm
16:14 7.8 °C 5.8 °C 1024.9 hPa Calm   3.2 km/h 87 % 0 mm
16:19 7.8 °C 5.8 °C 1024.9 hPa Calm   8 km/h 87 % 0 mm
16:24 7.8 °C 5.8 °C 1024.9 hPa Calm   9.7 km/h 87 % 0 mm
16:29 7.9 °C 5.9 °C 1025.3 hPa Calm   9.7 km/h 87 % 0 mm
16:34 7.9 °C 5.9 °C 1025.3 hPa Calm   9.7 km/h 87 % 0 mm
16:39 7.9 °C 5.9 °C 1025.3 hPa Calm   1.6 km/h 87 % 0 mm
16:44 7.9 °C 5.9 °C 1025.3 hPa Calm   1.6 km/h 87 % 0 mm
16:49 7.9 °C 5.9 °C 1025.3 hPa Calm   4.8 km/h 87 % 0 mm
16:55 8.1 °C 6.1 °C 1025.3 hPa Calm   4.8 km/h 87 % 0 mm
16:59 8.1 °C 6.1 °C 1025.3 hPa Calm   4.8 km/h 87 % 0 mm
17:04 8.1 °C 5.9 °C 1025.6 hPa Calm   1.6 km/h 86 % 0 mm
17:09 8.1 °C 5.9 °C 1025.6 hPa Calm   4.8 km/h 86 % 0 mm
17:14 8.1 °C 6.1 °C 1025.6 hPa Calm   4.8 km/h 87 % 0 mm
17:19 8.1 °C 5.9 °C 1025.6 hPa WNW 1.6 km/h 4.8 km/h 86 % 0 mm
17:24 8.1 °C 5.9 °C 1025.6 hPa Calm   6.4 km/h 86 % 0 mm
17:29 8.1 °C 5.9 °C 1025.6 hPa Calm   6.4 km/h 86 % 0 mm
17:34 8.1 °C 5.9 °C 1025.6 hPa Calm   6.4 km/h 86 % 0 mm
17:39 8.1 °C 5.9 °C 1025.6 hPa Calm   4.8 km/h 86 % 0 mm
17:44 8.1 °C 5.9 °C 1026 hPa Calm   4.8 km/h 86 % 0 mm
17:49 8.1 °C 5.9 °C 1025.6 hPa Calm   1.6 km/h 86 % 0 mm
17:54 8.1 °C 5.9 °C 1026 hPa Calm   1.6 km/h 86 % 0 mm
17:59 8.1 °C 5.9 °C 1026 hPa Calm   1.6 km/h 86 % 0 mm
18:04 8.1 °C 5.9 °C 1026 hPa Calm     86 % 0 mm
18:09 8.1 °C 5.9 °C 1026 hPa Calm     86 % 0 mm
18:14 8.1 °C 6.1 °C 1026 hPa Calm     87 % 0 mm
18:19 8.1 °C 6.1 °C 1026 hPa Calm     87 % 0 mm
18:24 8.2 °C 6.2 °C 1026 hPa Calm     87 % 0 mm
18:29 8.2 °C 6.2 °C 1026.3 hPa Calm     87 % 0 mm
18:34 8.1 °C 6.1 °C 1026.3 hPa Calm     87 % 0 mm
18:39 8.2 °C 6.3 °C 1026 hPa Calm     88 % 0 mm
18:44 8.1 °C 6.2 °C 1026.3 hPa Calm     88 % 0 mm
18:49 8.2 °C 6.2 °C 1026.3 hPa Calm     87 % 0 mm
18:54 8.2 °C 6.2 °C 1026.3 hPa Calm     87 % 0 mm
18:59 8.2 °C 6.2 °C 1026.3 hPa Calm     87 % 0 mm
19:04 8.2 °C 6.2 °C 1026.3 hPa Calm     87 % 0 mm
19:09 8.2 °C 6.2 °C 1026.3 hPa Calm     87 % 0 mm
19:14 8.2 °C 6.2 °C 1026.6 hPa Calm     87 % 0 mm
19:19 8.2 °C 6.2 °C 1026.6 hPa Calm     87 % 0 mm
19:24 8.2 °C 6.2 °C 1026.6 hPa Calm     87 % 0 mm
19:29 8.2 °C 6.2 °C 1026.6 hPa Calm     87 % 0 mm
19:34 8.2 °C 6.2 °C 1026.6 hPa Calm     87 % 0 mm
19:39 8.2 °C 6.2 °C 1026.6 hPa Calm     87 % 0 mm
19:44 8.2 °C 6.2 °C 1026.6 hPa Calm     87 % 0 mm
19:49 8.2 °C 6.2 °C 1027 hPa Calm     87 % 0 mm
19:54 8.2 °C 6.2 °C 1027 hPa Calm   1.6 km/h 87 % 0 mm
19:59 8.2 °C 6.2 °C 1027 hPa Calm   1.6 km/h 87 % 0 mm
20:04 8.1 °C 6.1 °C 1027 hPa Calm   1.6 km/h 87 % 0 mm
20:09 8.2 °C 6.2 °C 1027 hPa Calm     87 % 0 mm
20:14 8.2 °C 6 °C 1027 hPa Calm     86 % 0 mm
20:19 8.2 °C 6.2 °C 1027 hPa Calm   1.6 km/h 87 % 0 mm
20:24 8.2 °C 6 °C 1027 hPa Calm   1.6 km/h 86 % 0 mm
20:29 8.2 °C 6 °C 1027 hPa Calm   1.6 km/h 86 % 0 mm
20:34 8.2 °C 6 °C 1027 hPa Calm     86 % 0 mm
20:39 8.2 °C 6 °C 1027 hPa Calm     86 % 0 mm
20:44 8.2 °C 6 °C 1027 hPa Calm     86 % 0 mm
20:49 8.2 °C 6 °C 1027 hPa Calm     86 % 0 mm
20:54 8.2 °C 6 °C 1027 hPa Calm     86 % 0 mm
20:59 8.2 °C 6 °C 1027 hPa Calm     86 % 0 mm
21:04 8.2 °C 6 °C 1027.3 hPa Calm     86 % 0 mm
21:09 8.2 °C 6 °C 1027.3 hPa Calm     86 % 0 mm
21:14 8.2 °C 6 °C 1027.3 hPa Calm     86 % 0 mm
21:19 8.1 °C 5.9 °C 1027.3 hPa Calm     86 % 0 mm
21:24 8.1 °C 5.9 °C 1027.3 hPa Calm     86 % 0 mm
21:29 8 °C 5.8 °C 1027.3 hPa Calm     86 % 0 mm
21:34 7.8 °C 5.8 °C 1027.3 hPa Calm     87 % 0 mm
21:39 7.7 °C 5.7 °C 1027.3 hPa Calm     87 % 0 mm
21:44 7.4 °C 5.4 °C 1027.7 hPa Calm     87 % 0 mm
21:49 7.2 °C 5.2 °C 1027.7 hPa Calm     87 % 0 mm
Spring, Texas: Villages of Bridgestone
Compliments of Weather Underground - 2.75 mb

Script developed by  Jim McMurry - jmcmurry@mwt.net Adapted for the template by  Wim van der Kuil - Leuven-Template.eu

You find our weather info also at:

UK Metoffice

WeatherCloud

Weather Underground

Mid-South Weather Network

AWEKAS

Citizen Weather Observer Program (CWOP)

HAMweather, WeatherForYou, PWS Weather

Equipment we use:

Weather-station
Davis Vantage Vue

Weather-program
Meteohub

Weather-server
Debian 7.9 x86 (Guest)

Provider
DreamHost

Davis Vantage Vue

Meteohub

Debian 7.9 x86 (Guest)

DreamHost